Location: Caltech
(34.1382°N, 118.1253°W)
Time: 16:58:56
(UTC-08:00)

Sapphire - Visible Passes

Search period start: 01 March 2015 00:00
Search period end: 11 March 2015 01:00
Orbit: 785 x 797 km, 67.1° (Epoch: 01 March)

Date Brightness Start Highest point End Pass type
(mag) Time Alt. Az. Time Alt. Az. Time Alt. Az.
01 Mar ? 05:19:40 10° N 05:23:53 23° NE 05:28:12 10° ESE visible
02 Mar ? 04:49:42 10° N 04:53:08 17° NE 04:56:44 10° E visible
02 Mar ? 19:27:08 10° SSE 19:28:03 14° SSE 19:28:03 14° SSE visible
03 Mar ? 04:20:08 10° NNE 04:22:19 13° NE 04:24:46 10° ENE visible
03 Mar ? 18:57:26 10° SSE 19:00:33 20° ESE 19:00:33 20° ESE visible
03 Mar ? 20:39:17 10° SW 20:41:27 23° WSW 20:41:27 23° WSW visible
04 Mar ? 05:30:38 10° NNW 05:36:03 67° ENE 05:41:26 10° SE visible
04 Mar ? 18:28:14 10° SE 18:30:53 14° ESE 18:33:17 11° ENE visible
04 Mar ? 20:08:29 10° SW 20:13:51 61° WNW 20:14:13 60° NW visible
05 Mar ? 05:00:14 10° NNW 05:05:28 47° ENE 05:10:41 10° SE visible
05 Mar ? 19:37:53 10° SSW 19:43:19 86° WNW 19:47:14 20° NNE visible
05 Mar ? 21:25:37 10° WNW 21:27:39 12° NW 21:28:10 11° NW visible
06 Mar ? 04:29:57 10° N 04:34:50 34° ENE 04:39:46 10° ESE visible
06 Mar ? 19:07:27 10° SSW 19:12:48 67° ESE 19:18:13 10° NNE visible
06 Mar ? 20:53:26 10° W 20:56:49 16° NW 21:00:01 10° NNW visible
07 Mar ? 03:59:45 10° N 04:04:10 25° NE 04:08:39 10° ESE visible
07 Mar ? 05:42:42 10° NW 05:47:44 38° WSW 05:52:40 10° S visible
07 Mar ? 18:37:12 10° S 18:42:20 47° ESE 18:47:33 10° NE visible
07 Mar ? 20:21:52 10° WSW 20:26:03 22° NW 20:30:07 10° N visible
08 Mar ? 04:29:45 10° N 04:33:25 19° NE 04:37:16 10° E visible
08 Mar ? 06:11:58 10° NW 06:17:16 55° WSW 06:22:31 10° S visible
08 Mar ? 20:50:37 10° WSW 20:55:20 29° NW 21:00:01 10° N visible
09 Mar ? 04:00:01 10° NNE 04:02:38 14° NE 04:05:29 10° E visible
09 Mar ? 05:41:20 10° NNW 05:46:48 79° WSW 05:52:11 10° SSE visible
09 Mar ? 20:19:36 10° SW 20:24:41 40° WNW 20:29:46 10° N visible
10 Mar ? 05:10:50 10° NNW 05:16:16 74° ENE 05:21:40 10° SSE visible
10 Mar ? 19:48:46 10° SW 19:54:05 55° WNW 19:59:26 10° NNE visible
